Weather Roundup
Issued by NWS Springfield, MO

Home | Current Version | Previous Version | Text Only | Print | Product List | Glossary On
Versions: 1 2 3 4 5 6 7 8 9 10 11 12 13 14 15 16 17 18 19 20 21 22 23 24 25 26 27 28 29 30 31 32 33 34 35 36 37 38 39 40 41 42 43 44 45 46 47 48 49 50
000
NZUS99 KSGF 212207
HRRSGF

HOURLY WEATHER
NATIONAL WEATHER SERVICE SPRINGFIELD MO
500 PM CDT SAT APR 21 2018

......SGF CWA......

CITY           SKY/WX    TMP DP  RH WIND       PRES   REMARKS
SPRINGFIELD    CLOUDY    65  37  35 SE13      30.08S
JOPLIN         LGT RAIN  58  49  72 SE3       30.07S
WEST PLAINS    PTSUNNY   68  32  26 E10G22    30.13R
ROLLA          CLOUDY    66  34  30 NE12      30.13S
OSAGE BEACH    CLOUDY    68  34  28 NE13      30.12R
BRANSON        CLOUDY    64  39  39 E14       30.09F

......SURROUNDING SGF CWA......

CITY           SKY/WX    TMP DP  RH WIND       PRES   REMARKS
CHANUTE        LGT RAIN  50  45  83 NW10      30.11R
PARSONS        LGT RAIN  50  49  96 N14       30.10R
COFFEYVILLE    RAIN      51  49  92 NW13      30.10R FOG
EMPORIA        LGT RAIN  46  42  86 N7        30.15S FOG
GROVE OK       RAIN      54  50  87 NE8       30.04F
ROGERS AR      LGT RAIN  56  47  71 SE9       30.06S
SILOAM SPRINGS LGT RAIN  53  49  86 E6        30.02F
HARRISON AR    CLOUDY    64  42  44 E14       30.05F
NEAR YELLVILLE CLOUDY    67  42  40 SE6       30.09S

......KANSAS AND MISSOURI......

CITY           SKY/WX    TMP DP  RH WIND       PRES   REMARKS
KANSAS CTY INT CLOUDY    63  31  30 E17       30.11F
DOWNTOWN KC    CLOUDY    66  31  27 E13       30.09F
COLUMBIA       CLOUDY    66  27  23 NE16G23   30.15S
SEDALIA        CLOUDY    67  33  28 E10       30.15R
ST JOSEPH      CLOUDY    63  33  32 NE17G26   30.13F
ST LOUIS       PTSUNNY   65  31  28 E13       30.20R
SPIRIT OF STL  MOSUNNY   66  34  30 NE15      30.16S
KIRKSVILLE     CLOUDY    59  29  31 E9G23     30.22S
WICHITA        RAIN      45  44  97 NE10      30.13R FOG
TOPEKA         CLOUDY    53  44  71 NW9       30.15S
OLATHE         CLOUDY    63  35  35 E10       30.10F

......TENNESSEE......

CITY           SKY/WX    TMP DP  RH WIND       PRES   REMARKS
MEMPHIS        PTSUNNY   73  44  35 SE12      30.11R
NASHVILLE      PTSUNNY   73  32  22 E8        30.18F

......ARKANSAS.......

CITY           SKY/WX    TMP DP  RH WIND       PRES   REMARKS
FAYETTEVILLE   LGT RAIN  55  52  89 E6        30.03S FOG
FT SMITH       LGT RAIN  60  54  80 E15       29.95F
LITTLE ROCK    CLOUDY    68  49  50 S3        30.07R

......OKLAHOMA.......

CITY           SKY/WX    TMP DP  RH WIND       PRES   REMARKS
TULSA          RAIN      50  49  96 NW12      30.08R FOG
PONCA CITY     RAIN      47  43  86 NE14G23   30.10R
MCALESTER      RAIN      52  51  97 NE7       30.00R FOG
OKLAHOMA CITY  CLOUDY    48  46  93 NE13      30.03F

......IOWA............

CITY           SKY/WX    TMP DP  RH WIND       PRES   REMARKS
DES MOINES     CLOUDY    58  23  26 E6        30.25F
QUAD CITIES    FAIR      59  28  30 E14       30.30R

......ILLINOIS........

CITY           SKY/WX    TMP DP  RH WIND       PRES   REMARKS
QUINCY         CLOUDY    61  27  27 E15G21    30.23F
CHICAGO        CLOUDY    54  23  30 E9        30.36F




USA.gov is the U.S. government's official web portal to all federal, state and local government web resources and services.